TimeMST,TemperatureF,Dew PointF,Humidity,Sea Level PressureIn,VisibilityMPH,Wind Direction,Wind SpeedMPH,Gust SpeedMPH,PrecipitationIn,Events,Conditions,WindDirDegrees,DateUTC
12:53 AM,52.0,30.0,43,29.44,10.0,SSW,17.3,26.5,N/A,,Clear,210,2012-11-10 07:53:00
1:53 AM,51.1,28.0,41,29.44,10.0,SW,17.3,-,N/A,,Clear,220,2012-11-10 08:53:00
2:53 AM,48.9,28.9,46,29.43,10.0,SSW,10.4,-,N/A,,Clear,200,2012-11-10 09:53:00
3:53 AM,46.0,28.9,51,29.43,10.0,South,6.9,-,N/A,,Clear,180,2012-11-10 10:53:00
4:53 AM,48.0,30.0,50,29.43,10.0,SSW,13.8,-,N/A,,Clear,200,2012-11-10 11:53:00
5:53 AM,48.0,30.9,52,29.39,10.0,SSW,11.5,-,N/A,,Clear,200,2012-11-10 12:53:00
6:53 AM,51.1,33.1,50,29.40,10.0,SSW,16.1,-,N/A,,Clear,210,2012-11-10 13:53:00
7:49 AM,33.8,26.6,75,29.47,10.0,North,21.9,27.6,N/A,,Clear,350,2012-11-10 14:49:00
7:53 AM,35.1,28.0,76,29.49,10.0,North,23.0,29.9,N/A,,Clear,350,2012-11-10 14:53:00
8:00 AM,35.6,28.4,75,29.47,9.0,NNW,28.8,46.0,N/A,,Clear,340,2012-11-10 15:00:00
8:08 AM,37.4,30.2,75,29.50,2.5,North,21.9,46.0,N/A,,Haze,350,2012-11-10 15:08:00
8:11 AM,32.0,28.4,87,29.49,1.2,North,21.9,29.9,N/A,,Scattered Clouds,360,2012-11-10 15:11:00
8:53 AM,30.9,30.0,96,29.54,0.2,North,24.2,-,N/A,Fog,Light Freezing Fog,360,2012-11-10 15:53:00
9:32 AM,33.8,30.2,87,29.51,1.2,North,23.0,-,N/A,,Overcast,10,2012-11-10 16:32:00
9:39 AM,33.8,30.2,87,29.51,2.0,NNE,19.6,29.9,N/A,,Overcast,20,2012-11-10 16:39:00
9:53 AM,35.1,32.0,89,29.54,2.5,North,21.9,-,N/A,,Overcast,10,2012-11-10 16:53:00
10:00 AM,35.6,32.0,87,29.51,4.0,NNE,21.9,-,N/A,,Overcast,20,2012-11-10 17:00:00
10:53 AM,36.0,33.1,89,29.50,6.0,NNE,18.4,-,N/A,,Overcast,20,2012-11-10 17:53:00
11:23 AM,35.6,33.8,93,29.51,1.8,NE,18.4,-,0.02,Rain,Heavy Rain,40,2012-11-10 18:23:00
11:32 AM,35.6,33.8,93,29.53,3.0,NNE,12.7,-,0.03,Rain,Light Rain,20,2012-11-10 18:32:00
11:53 AM,36.0,35.1,97,29.49,4.0,NNE,17.3,-,0.03,,Overcast,30,2012-11-10 18:53:00
12:35 PM,35.6,35.6,100,29.50,1.8,NNE,17.3,-,N/A,,Overcast,20,2012-11-10 19:35:00
12:43 PM,35.6,33.8,93,29.50,3.0,NNE,18.4,24.2,N/A,,Overcast,20,2012-11-10 19:43:00
12:53 PM,35.1,34.0,96,29.48,2.0,NNE,15.0,-,N/A,,Overcast,20,2012-11-10 19:53:00
1:03 PM,35.6,33.8,93,29.51,6.0,NNE,17.3,-,N/A,,Overcast,20,2012-11-10 20:03:00
1:38 PM,35.6,33.8,93,29.53,10.0,NNE,12.7,-,N/A,,Overcast,20,2012-11-10 20:38:00
1:53 PM,36.0,33.1,89,29.51,10.0,NNE,15.0,19.6,N/A,,Overcast,20,2012-11-10 20:53:00
2:09 PM,35.6,33.8,93,29.51,1.8,North,25.3,38.0,0.03,Snow,Light Snow,360,2012-11-10 21:09:00
2:15 PM,33.8,33.8,100,29.52,1.8,North,16.1,38.0,0.04,Snow-Thunderstorm,Light Snow,360,2012-11-10 21:15:00
2:24 PM,35.6,33.8,93,29.55,3.0,North,8.1,-,0.05,Rain-Thunderstorm,Light Rain,350,2012-11-10 21:24:00
2:33 PM,33.8,32.0,93,29.56,2.5,North,16.1,-,0.05,Snow,Light Snow,360,2012-11-10 21:33:00
2:42 PM,33.8,32.0,93,29.56,1.8,North,17.3,-,0.06,Snow,Light Snow,350,2012-11-10 21:42:00
2:49 PM,33.8,30.2,87,29.56,1.0,North,18.4,-,0.07,Snow,Light Snow,350,2012-11-10 21:49:00
2:53 PM,33.1,30.9,92,29.55,1.0,North,15.0,-,0.07,Snow,Light Snow,350,2012-11-10 21:53:00
3:08 PM,33.8,32.0,93,29.56,1.5,North,16.1,-,0.00,Snow,Light Snow,10,2012-11-10 22:08:00
3:16 PM,33.8,32.0,93,29.56,3.0,North,15.0,-,0.01,Snow,Light Snow,360,2012-11-10 22:16:00
3:43 PM,33.8,32.0,93,29.58,8.0,North,17.3,-,0.01,Snow,Light Snow,10,2012-11-10 22:43:00
3:53 PM,34.0,32.0,92,29.60,7.0,North,10.4,-,0.01,Snow,Light Snow,10,2012-11-10 22:53:00
4:17 PM,33.8,32.0,93,29.59,10.0,NNE,16.1,-,0.00,,Overcast,20,2012-11-10 23:17:00
4:53 PM,32.0,30.0,92,29.61,10.0,NNE,20.7,-,0.00,,Overcast,20,2012-11-10 23:53:00
5:01 PM,32.0,30.2,93,29.65,10.0,North,10.4,26.5,N/A,,Overcast,350,2012-11-11 00:01:00
5:43 PM,28.4,26.6,93,29.66,2.5,North,26.5,-,0.00,Snow,Light Snow,350,2012-11-11 00:43:00
5:53 PM,28.0,27.0,96,29.70,2.5,North,15.0,33.4,0.00,Snow,Light Snow,350,2012-11-11 00:53:00
6:02 PM,28.4,26.6,93,29.70,1.8,NNW,19.6,-,0.00,Snow,Light Snow,330,2012-11-11 01:02:00
6:18 PM,26.6,24.8,93,29.67,2.5,North,21.9,33.4,0.00,Snow,Light Snow,10,2012-11-11 01:18:00
6:33 PM,26.6,24.8,93,29.68,1.5,North,20.7,33.4,0.00,Snow,Light Snow,360,2012-11-11 01:33:00
6:38 PM,26.6,24.8,93,29.68,1.2,North,19.6,32.2,0.00,Snow,Light Snow,350,2012-11-11 01:38:00
6:46 PM,24.8,23.0,93,29.69,1.0,North,20.7,-,0.00,Snow,Light Snow,350,2012-11-11 01:46:00
6:53 PM,25.0,23.0,92,29.72,1.2,North,20.7,26.5,0.00,Snow,Light Snow,360,2012-11-11 01:53:00
7:07 PM,24.8,23.0,93,29.73,1.0,North,17.3,-,0.00,Snow,Light Snow,360,2012-11-11 02:07:00
7:17 PM,24.8,21.2,86,29.74,0.8,North,15.0,25.3,0.00,Snow,Light Snow,360,2012-11-11 02:17:00
7:53 PM,23.0,21.0,92,29.84,0.5,North,15.0,-,0.01,Fog-Snow,Snow,10,2012-11-11 02:53:00
8:17 PM,23.0,19.4,86,29.77,1.0,North,18.4,-,0.01,Snow,Light Snow,350,2012-11-11 03:17:00
8:33 PM,21.2,19.4,93,29.78,1.2,North,24.2,29.9,0.01,Snow,Light Snow,360,2012-11-11 03:33:00
8:43 PM,21.2,19.4,93,29.78,1.0,North,18.4,-,0.01,Snow,Light Snow,360,2012-11-11 03:43:00
9:01 PM,21.2,19.4,93,29.79,1.2,North,25.3,28.8,0.00,Snow,Light Snow,350,2012-11-11 04:01:00
9:23 PM,21.2,17.6,86,29.80,1.2,North,23.0,-,0.00,Snow,Light Snow,350,2012-11-11 04:23:00
9:40 PM,21.2,17.6,86,29.80,1.5,North,17.3,-,0.00,Snow,Light Snow,350,2012-11-11 04:40:00
9:53 PM,21.0,19.0,92,29.89,1.5,NNW,12.7,-,0.00,Snow,Light Snow,340,2012-11-11 04:53:00
10:10 PM,21.2,19.4,93,29.80,2.5,NNW,13.8,-,0.00,Snow,Light Snow,340,2012-11-11 05:10:00
10:25 PM,19.4,17.6,93,29.81,5.0,North,17.3,-,0.00,Snow,Light Snow,350,2012-11-11 05:25:00
10:53 PM,19.9,17.1,89,29.90,10.0,North,15.0,-,0.00,,Overcast,350,2012-11-11 05:53:00
11:53 PM,18.0,14.0,84,29.93,10.0,NNW,11.5,-,N/A,,Overcast,340,2012-11-11 06:53:00